Regional Weather Roundup
Issued by NWS Wakefield, VA

Home | Current Version | Previous Version | Text Only | Print | Product List | Glossary On
Versions: 1 2 3 4 5 6 7 8 9 10 11 12 13 14 15 16 17 18 19 20 21 22 23 24 25 26 27 28 29 30 31 32 33 34 35 36 37 38 39 40 41 42 43 44 45 46 47 48 49 50
000
ASUS41 KAKQ 041615
RWRAKQ

REGIONAL WEATHER ROUNDUP
NATIONAL WEATHER SERVICE WAKEFIELD VA
1200 PM EDT SAT JUL 04 2015

Note: "fair" indicates few or no clouds below 12,000 feet with no
significant weather and/or obstructions to visibility. * = Denotes
station may not report precipitation (e.g., rain,snow,etc.),
thunder or fog.

VAZ042-051-052>054-056-041700-
NORTHERN VIRGINIA

CITY           SKY/WX    TMP DP  RH WIND       PRES   REMARKS
WASH NATIONAL  CLOUDY    77  70  78 VRB3      29.92S
DULLES         CLOUDY    74  69  85 S3        29.91S
FORT BELVOIR   PTSUNNY   75  70  83 SE3       29.91S
QUANTICO       PTSUNNY   77  68  73 CALM      29.91F
FREDERICKSBRG* PTSUNNY   80  72  75 SW5       29.90S
STAFFORD*      PTSUNNY   77  69  75 CALM      29.95S
WARRENTON      PTSUNNY   78  72  81 CALM      29.90F
CULPEPER*      PTSUNNY   77  70  80 S5        29.92S
MANASSAS*      CLOUDY    75  72  88 S3          N/A
LEESBURG*      CLOUDY    73  72  94 S8        29.93S
WINCHESTER     CLOUDY    79  70  73 CALM      29.91S
FRONT ROYAL*   CLOUDY    77  70  78 CALM      29.90S
LURAY*         FAIR      79  70  73 SW7       29.93R
$$

VAZ048-049-060>072-079>083-041700-
CENTRAL AND SOUTH CENTRAL VIRGINIA

CITY           SKY/WX    TMP DP  RH WIND       PRES   REMARKS
RICHMOND       PTSUNNY   81  70  69 SW12      29.92S
CHESTERFIELD*  NOT AVBL
PETERSBURG*    PTSUNNY   82  76  82 W7        29.94S
HANOVER        CLOUDY    79  70  74 VRB7      29.93S
TAPPAHANNOCK*  CLOUDY    79  67  67 W3        29.92S
QUINTON*       NOT AVBL
CHARLOTTSVILLE PTSUNNY   78  69  73 S7        29.92R
GORDONSVILLE*  CLOUDY    75  70  83 SW7       29.91S
ORANGE*        PTSUNNY   79  70  73 S3        29.93S
LOUISA*        PTSUNNY   77  70  78 SW6       29.91S
BUMPASS*       CLOUDY    76  70  81 W6        29.92R
FARMVILLE*     PTSUNNY   81  69  67 SW5       29.93R
CREWE*         PTSUNNY   79  70  74 SW5       29.94S
FORT PICKETT*  PTSUNNY   79  72  77 W8        29.94S
CHASE CITY*    PTSUNNY   82  74  78 W5        29.96R
CLARKSVILLE*   FAIR      79  70  73 W8        29.96R
SOUTH HILL*    PTSUNNY   79  71  77 SW9       30.01S
LAWRENCEVILLE* NOT AVBL
EMPORIA*         N/A     79  70  73 S9        29.96R
$$

VAZ088>098-041700-
SOUTHEAST VIRGINIA

CITY           SKY/WX    TMP DP  RH WIND       PRES   REMARKS
NORFOLK        PTSUNNY   81  69  67 W12       29.92R
VIRGINIA BEACH PTSUNNY   85  72  65 W16       29.92R
NORFOLK NAVAL  PTSUNNY   81  70  69 W13G20    29.94R
WEST POINT*    CLOUDY    82  71  70 W7        29.93R
SALUDA*        PTSUNNY   78  73  83 W3        29.91R
NEWPORT NEWS   CLOUDY    78  71  79 W8        29.92R
LANGLEY AFB    PTSUNNY   81  72  74 SW15G21   29.91R
FORT EUSTIS    PTSUNNY   81  79  95 W7        29.91R
WILLIAMSBURG*  MOSUNNY   82  75  78 W12       29.94R
HR EXEC AP*    PTSUNNY   82  72  69 SW9G18    29.95R
FRANKLIN*      PTSUNNY   80  72  76 W10       29.94R
WAKEFIELD      PTSUNNY   81  71  71 W8        29.93S
$$

VAZ020-022-025-037-045-041700-
WEST CENTRAL AND SOUTHWEST VIRGINIA

CITY           SKY/WX    TMP DP  RH WIND       PRES   REMARKS
STAUNTON*      CLOUDY    80  69  68 SW7       29.96S
WAYNESBORO*    FAIR      76  67  73 W9        29.96R
HOT SPRINGS VA CLOUDY    66  66 100 W12       30.07R
LYNCHBURG      CLOUDY    76  69  79 SW8       29.97S
DANVILLE       CLOUDY    81  69  67 W10       29.97R
SOUTH BOSTON*  PTSUNNY   80  71  74 MISG      29.96S
MARTINSVILLE   CLOUDY    80  68  66 SW6       30.01S
ROANOKE        PTSUNNY   80  66  62 W12G18    29.99R
BLACKSBURG     PTSUNNY   76  68  76 NW7       30.05F
DUBLIN*        LGT RAIN  74  67  76 W6        30.05R
MARION*        RAIN      68  65  90 W12       30.10R
HILLSVILLE*    PTSUNNY   71  64  78 W10       30.06S
RICHLANDS*     CLOUDY    69  65  88 W8        30.08S
WISE*          CLOUDY    70  68  94 SW8       30.10S
ABINGDON*      CLOUDY    72  68  87 W7        30.07S
$$

MDZ021>025-VAZ099-100-041700-
SOUTHERN MARYLAND AND THE DELMARVA PENINSULA

CITY           SKY/WX    TMP DP  RH WIND       PRES   REMARKS
PATUXENT RIVER PTSUNNY   80  68  66 N7        29.90R
BAY BRIDGE APT LGT RAIN  72  68  88 CALM      29.92S
LEONARDTOWN    PTSUNNY   79  66  65 W3        29.92S
DOVER          PTSUNNY   77  66  67 E12       29.90S
GEORGETOWN     CLOUDY    77  69  76 E9        29.91R
EASTON         NOT AVBL
CAMBRIDGE      MOSUNNY   79  66  65 NW5       29.90R
SALISBURY      CLOUDY    78  71  79 N9        29.89S
OCEAN CITY     CLOUDY    74  70  87 N8        29.89R
WALLOPS ISLAND CLOUDY    81  73  76 W7        29.89R
ACCOMACK*      CLOUDY    79  73  83 NW9       29.90S
$$

NCZ012>017-030>032-041700-
NORTH CENTRAL AND EASTERN NORTH CAROLINA

CITY           SKY/WX    TMP DP  RH WIND       PRES   REMARKS
ROANOKE RAPIDS PTSUNNY   82  70  65 SW12G21   29.95S
RALEIGH        PTSUNNY   82  70  66 W13       29.99R
ELIZABETH CITY MOSUNNY   83  71  67 SW14G22   29.94R
AHOSKIE*       MOSUNNY  N/A N/A N/A NW5       29.94S
EDENTON*         N/A     84  71  63 W9G18     29.95S
CURRITUCK*     PTSUNNY   83  69  62 SW10      29.94S
KILL DEVIL HLS SUNNY     87  71  58 SW10G22   29.94S
MANTEO         SUNNY     84  70  62 W16G22    29.96R
CAPE HATTERAS  MOSUNNY   83  73  72 SW12      29.99S
TARBORO*         N/A     87  70  57 SW12      29.96S
GOLDSBORO      MOSUNNY   86  72  62 W14G20    29.96R
WASHINGTON     SUNNY     85  72  65 SW12      29.97R
GREENVILLE     MOSUNNY   86  73  66 W9        29.98S
NEW BERN       SUNNY     87  70  56 W13G22    30.00R
WILMINGTON     PTSUNNY   87  68  52 SW15G25   30.03R
$$

VAZ048-041700-
ELSEWHERE

CITY           SKY/WX    TMP DP  RH WIND       PRES   REMARKS
HARRISBURG PA  CLOUDY    69  64  84 E7        29.93S HAZE
BALTIMORE      PTSUNNY   71  67  87 CALM      29.92S
ANNAPOLIS      PTSUNNY   73  69  87 SE9       29.92S
ANDREWS AFB    PTSUNNY   75  72  88 VRB1      29.91S
PHILADELPHIA   CLOUDY    76  60  57 N9        29.94R
HENDERSON NC   PTSUNNY   81  67  60 W7        29.97S
GREENSBORO     CLOUDY    78  69  73 SW10      30.01R
ROCKY MOUNT    PTSUNNY   85  69  58 W14G20    29.97R
$$

VAZ100-041700-
MARINE

STATION/POSITION TIME  TEMP    WIND        PRES    WAVE   SWELL
                       AIR SEA DIR/SP/G            HT/PER HT/PER
                 (UTC) (F)     (DEG/KT/KT) (MB)    (FT/S) (FT/S)
BRANDYWINE LGT   1500   73 73   80/ 11/ 12 1012.4R
CAPE MAY NJ      1500   74 76   70/  5/  7 1011.8R
LEWES DE         1500   72 72   50/  9/ 10 1012.0R
15NM E FENWICK I 1550   72 73              1010.6R   5/ 5
OCEAN-CITY-INLET 1500   74 73   50/  5/ 10 1011.3R
WACHAPREAGUE VA  1500   79 78  280/  4/ 11 1012.1R
THOMAS POINT MD  1600   71 76   10/  5/  5 1013.4R
GOOSES REEF MD   1600   76 78   10/  4/  6 1013.9R
COVE POINT MD    1500   74      10/  6/  9 1013.1R
SOLOMONS ISLAND  1500      79                N/A
BISHOPS HEAD MD  1500   76     290/  9/ 11 1012.1R
PINEY POINT MD   1500          330/  8/  9   N/A
CAMBRIDGE MD     1500   76 78  330/  4/  6 1012.2R
LEWISETTA VA     1500   76 79  350/  5/  6 1012.1R
RAPPAHANNOCK LGT 1500          280/  8/  9 1012.9R
STINGRAY PT      1600   78 80  280/  6/ 10 1012.8R   1/ 2
YORK RVR RNG VA  1500   76     300/ 10/ 12 1012.0R
YORKTOWN VA      1500   76 79  300/  6/  9 1012.4R
JAMESTOWN VA     1600   78 82  250/ 10/ 14   N/A
DOMINION TERM VA 1500   77     250/ 15/ 18 1012.7R
KIPTOPEKE VA     1500      81  290/ 13/ 18   N/A
CHES BAY BRIDGE  1500   77 75  240/ 14/ 18 1012.2R
CAPE HENRY VA    1500   79     270/ 11/ 17 1011.1R
CHESAPEAKE LGHT  1500   76     290/ 12/ 13 1013.3R
WILLOUBY STN VA  1500   76     250/ 16/ 18 1013.4R
CAPE HENRY BUOY  1528      76                N/A     3/ 7   2/14
1ST LANDING BUOY 1600      76              1012.9R   2/ 3
CAPE CHARLES BUO 1526      75                N/A     3/ 7   2/ 7
OFFSHORE WE BUOY 1511      77                N/A     5/ 7   3/ 7
64NM E OF VA BCH 1550   77 76  260/ 17/ 21 1012.7R   7/ 8   2/15
DUCK PIER NC     1500   80 65  240/ 19/ 22   N/A
44100 DUCK FRF   1524      75                N/A     3/ 8
44056 DUCK FRF   1511      75                N/A     2/15   2/15
OREGON INLET NC  1500   81 79  230/ 16/ 20 1014.1R
HATTERAS NC      1500   81 77  210/  6/ 12 1015.2R
DIAMOND SHLS NC  1550   81 81  240/ 25/ 31 1015.4R   6/ 7   3/13
CAPE LOOKOUT NC  1600   83     220/ 11/ 16 1016.3R
$$



USA.gov is the U.S. government's official web portal to all federal, state and local government web resources and services.